Location: Columbus
(29.5618°N, 96.6770°W)
Time: 01:45:46
(UTC-05:00)

Iridium 59 - Visible Passes

Search period start: 24 September 2017 00:00
Search period end: 04 October 2017 00:00
Orbit: 776 x 779 km, 86.4° (Epoch: 23 September)

Date Brightness Start Highest point End Pass type
(mag) Time Alt. Az. Time Alt. Az. Time Alt. Az.
24 Sep 6.1 04:53:59 10° NNE 04:58:56 43° E 05:03:51 10° SSE visible
24 Sep 6.5 06:36:16 10° NW 06:39:11 15° W 06:42:06 10° WSW visible
25 Sep 7.2 04:21:18 10° NNE 04:25:16 22° E 04:29:01 11° SE visible
25 Sep 5.7 06:01:25 10° NNW 06:05:55 30° W 06:09:07 16° SW visible
26 Sep 8.0 03:50:35 10° ENE 03:51:30 10° ENE 03:52:25 10° E visible
26 Sep 4.9 05:27:24 10° N 05:32:32 61° W 05:32:44 61° W visible
27 Sep 5.9 04:53:52 10° N 04:57:32 44° NNE 04:57:32 44° NNE visible
28 Sep 7.2 04:20:48 10° NNE 04:22:46 20° NE 04:22:46 20° NE visible
28 Sep 6.9 06:02:10 10° NW 06:03:09 14° NW 06:03:09 14° NW visible
29 Sep 7.0 05:27:44 10° NNW 05:28:38 15° NNW 05:28:38 15° NNW visible
30 Sep 7.5 04:53:55 10° N 04:54:17 12° N 04:54:17 12° N visible
